Regional Weather Roundup
Issued by NWS

Home | Current Version | Previous Version | Text Only | Print | Product List | Glossary Off
Versions: 1 2 3 4 5 6 7 8 9 10 11 12 13 14 15 16 17 18 19 20 21 22 23 24 25 26 27 28 29 30 31 32 33 34 35 36 37 38 39 40 41 42 43 44 45 46 47 48 49 50

000
ASUS45 KCYS 311010
RWRWY

WYOMING REGIONAL WEATHER ROUNDUP
NATIONAL WEATHER SERVICE CHEYENNE WY
400 AM MDT MON AUG 31 2015

NOTE:  "FAIR" INDICATES FEW OR NO CLOUDS BELOW 12,000 FEET
WITH NO SIGNIFICANT WEATHER AND/OR OBSTRUCTIONS TO VISIBILITY.

WYZ001-311100-
YELLOWSTONE NATIONAL PARK

CITY           SKY/WX    TMP DP  RH WIND       PRES   REMARKS
LK YELLOWSTONE   N/A     39  25  57 CALM      30.20R
W YELLOWSTONE  NOT AVBL

$$
WYZ002>013-054>058-071-098>099-311100-
NORTHERN WYOMING

CITY           SKY/WX    TMP DP  RH WIND       PRES   REMARKS
JACKSON        FAIR      46  34  61 CALM      30.14S
CODY           FAIR      54  39  58 N7        30.03S
GREYBULL       FAIR      62  41  46 W13       29.91R
WORLAND        FAIR      59  41  51 SE5       29.93R
SHERIDAN       FAIR      58  43  57 NW12      30.01R
BUFFALO        FAIR      58  44  60 NW29G40   29.98R
GILLETTE       FAIR      67  45  45 NW20      29.92R
HULETT         FAIR      70  48  46 W7        29.90R
NEWCASTLE      FAIR      72  41  33 MISG      29.90R

$$
WYZ014>020-022>026-101>103-311100-
CENTRAL WYOMING

CITY           SKY/WX    TMP DP  RH WIND       PRES   REMARKS
BIG PINEY      FAIR      40  29  64 N5        30.20S
PINEDALE       FAIR      41  32  70 W9        30.20S
DUBOIS         FAIR      46  23  39 NW13      30.16R
LANDER         FAIR      62  40  44 W3        30.03R
RIVERTON       FAIR      62  35  36 N5        30.04R
CASPER         FAIR      65  44  46 W6        30.03R
DOUGLAS        FAIR      74  45  35 W15       29.97R

$$
WYZ021-027>030-104>119-311100-
SOUTHERN WYOMING

CITY           SKY/WX    TMP DP  RH WIND       PRES   REMARKS
EVANSTON       MOCLDY    53  39  59 NW8       30.21R
KEMMERER       FAIR      50  32  50 NW10      30.21F
FORT BRIDGER   MOSUNNY   55  45  67 W7        30.22F
ROCK SPRINGS   FAIR      54  48  80 MISG      30.18R
DIXON          RAIN      56  53  90 CALM      30.28R
RAWLINS        MOCLDY    63  41  44 W20G25    30.14F
SARATOGA       LGT RAIN  59  48  67 S9        30.24R
LARAMIE        LGT RAIN  58  48  69 W9        30.22R
CHEYENNE       CLOUDY    70  46  42 W24G32    30.08R
TORRINGTON     LGT RAIN  73  51  46 W17       29.94R
PINE BLUFFS    FAIR      63  50  63 E6        30.01S

$$



USA.gov is the U.S. government's official web portal to all federal, state and local government web resources and services.